Time,TemperatureF,DewpointF,PressureIn,WindDirection,WindDirectionDegrees,WindSpeedMPH,WindSpeedGustMPH,Humidity,HourlyPrecipIn,Conditions,Clouds,dailyrainin,SoftwareType,DateUTC
2013-01-04 00:03:00,29.0,23.0,30.27,SW,221,4.0,11.0,78,0.00,,,0.00,,2013-01-04 05:03:00,
2013-01-04 00:12:00,29.0,23.0,30.27,SW,221,4.0,11.0,78,0.00,,,0.00,,2013-01-04 05:12:00,
2013-01-04 00:22:00,28.0,22.0,30.27,WSW,248,3.0,10.0,79,0.00,,,0.00,,2013-01-04 05:22:00,
2013-01-04 00:33:00,28.0,22.0,30.27,WSW,255,6.0,11.0,78,0.00,,,0.00,,2013-01-04 05:33:00,
2013-01-04 00:42:00,28.0,22.0,30.27,WSW,255,6.0,11.0,78,0.00,,,0.00,,2013-01-04 05:42:00,
2013-01-04 00:52:00,28.0,22.0,30.26,WSW,238,4.0,9.0,78,0.00,,,0.00,,2013-01-04 05:52:00,
2013-01-04 01:02:00,28.0,22.0,30.26,WSW,240,5.0,12.0,78,0.00,,,0.00,,2013-01-04 06:02:00,
2013-01-04 01:12:00,28.0,22.0,30.26,WSW,240,5.0,12.0,78,0.00,,,0.00,,2013-01-04 06:12:00,
2013-01-04 01:22:00,28.0,22.0,30.26,WSW,238,6.0,14.0,77,0.00,,,0.00,,2013-01-04 06:22:00,
2013-01-04 01:33:00,28.0,22.0,30.25,WSW,243,5.0,9.0,77,0.00,,,0.00,,2013-01-04 06:33:00,
2013-01-04 01:42:00,28.0,22.0,30.25,WSW,243,5.0,9.0,77,0.00,,,0.00,,2013-01-04 06:42:00,
2013-01-04 01:52:00,28.0,22.0,30.25,SW,221,4.0,11.0,78,0.00,,,0.00,,2013-01-04 06:52:00,
2013-01-04 02:02:00,28.0,22.0,30.25,WSW,257,6.0,11.0,78,0.00,,,0.00,,2013-01-04 07:02:00,
2013-01-04 02:12:00,28.0,22.0,30.25,WSW,257,6.0,11.0,78,0.00,,,0.00,,2013-01-04 07:12:00,
2013-01-04 02:22:00,28.0,22.0,30.25,WSW,246,4.0,13.0,78,0.00,,,0.00,,2013-01-04 07:22:00,
2013-01-04 02:32:00,28.0,22.0,30.25,WSW,245,5.0,12.0,79,0.00,,,0.00,,2013-01-04 07:32:00,
2013-01-04 02:42:00,28.0,22.0,30.25,WSW,245,5.0,12.0,79,0.00,,,0.00,,2013-01-04 07:42:00,
2013-01-04 02:52:00,27.0,21.0,30.26,SW,235,4.0,10.0,79,0.00,,,0.00,,2013-01-04 07:52:00,
2013-01-04 03:02:00,27.0,22.0,30.26,SW,215,4.0,11.0,80,0.00,,,0.00,,2013-01-04 08:02:00,
2013-01-04 03:12:00,27.0,22.0,30.26,SW,215,4.0,11.0,80,0.00,,,0.00,,2013-01-04 08:12:00,
2013-01-04 03:23:00,27.0,22.0,30.26,WSW,250,4.0,11.0,80,0.00,,,0.00,,2013-01-04 08:23:00,
2013-01-04 03:32:00,27.0,22.0,30.26,SW,224,5.0,10.0,81,0.00,,,0.00,,2013-01-04 08:32:00,
2013-01-04 03:42:00,27.0,22.0,30.26,SW,224,5.0,10.0,81,0.00,,,0.00,,2013-01-04 08:42:00,
2013-01-04 03:52:00,26.0,21.0,30.25,WSW,238,5.0,12.0,81,0.00,,,0.00,,2013-01-04 08:52:00,
2013-01-04 04:02:00,26.0,21.0,30.25,SW,217,4.0,11.0,82,0.00,,,0.00,,2013-01-04 09:02:00,